Weather History for Galax, VA

Change the Weather History Date:

Saturday, March 22, 2014

  Actual Average (KBLF) Record (KBLF)
Temperature  
Mean Temperature 54 °F 47 °F  
Max Temperature 62 °F 56 °F 81 °F (2012)
Min Temperature 46 °F 38 °F 12 °F (2002)
Degree Days  
Heating Degree Days 11 18  
Month to date heating degree days 468  
Since 1 July heating degree days 3961  
Cooling Degree Days 0 0  
Month to date cooling degree days 0  
Year to date cooling degree days 0  
Growing Degree Days 4 (Base 50)    
Moisture  
Dew Point 21 °F    
Average Humidity 27    
Maximum Humidity 47    
Minimum Humidity 20    
Precipitation  
Precipitation 0.00 in 0.12 in 0.77 in (2010)
Month to date precipitation 2.48  
Year to date precipitation 8.14  
Snow  
Snow 0.00 in - - ()
Month to date snowfall  
Since 1 July snowfall  
Snow Depth -    
Sea Level Pressure  
Sea Level Pressure 30.02 in    
Wind  
Wind Speed 9 mph (WSW)    
Max Wind Speed 22 mph    
Max Gust Speed 29 mph    
Visibility 10 miles    
Events      
T = Trace of Precipitation, MM = Missing Value Source: NWS Daily Summary

Daily Weather History Graph

Daily Weather History Graph

Search for Another Location

Airport:

Trip Planner

Search our weather history database for the weather conditions in past years. The results will help you decide how hot, cold, wet, or windy it might be!

Date:

Astronomy

Mar. 22, 2014 Rise Set
Actual Time 7:23 AM EDT 7:36 PM EDT
Civil Twilight 6:58 AM EDT 8:02 PM EDT
Nautical Twilight 6:27 AM EDT 8:33 PM EDT
Astronomical Twilight 5:57 AM EDT 9:03 PM EDT
Moon 12:47 AM EDT (3/22) 11:13 AM EDT (3/22)
Length of Visible Light 13h 04m
Length of Day
12h 12m
Waning Gibbous, 65% of the Moon is Illuminated
Mar 22
Waning Gibbous
Mar 23
Last Quarter
Mar 30
New
Apr 7
First Quarter
Apr 15
Full

Hourly Weather History & Observations

Time (EDT) Temp. Windchill Dew Point Humidity Pressure Visibility Wind Dir Wind Speed Gust Speed Precip Events Conditions
12:15 AM 50.0 °F - 12.2 °F 22% 30.04 in 10.0 mi South 6.9 mph - N/A   Clear
12:35 AM 50.0 °F - 12.2 °F 22% 30.03 in 10.0 mi South 9.2 mph - N/A   Clear
12:55 AM 50.0 °F - 12.2 °F 22% 30.03 in 10.0 mi SSW 12.7 mph - N/A   Clear
1:15 AM 50.0 °F - 10.4 °F 20% 30.02 in 10.0 mi SSW 10.4 mph - N/A   Clear
1:35 AM 50.0 °F - 12.2 °F 22% 30.02 in 10.0 mi SSW 11.5 mph - N/A   Clear
1:55 AM 50.0 °F - 12.2 °F 22% 30.02 in 10.0 mi SSW 13.8 mph 17.3 mph N/A   Clear
2:15 AM 48.2 °F - 12.2 °F 24% 30.03 in 10.0 mi SSW 10.4 mph - N/A   Clear
2:35 AM 48.2 °F - 14.0 °F 25% 30.02 in 10.0 mi WNW 3.5 mph - N/A   Clear
2:55 AM 48.2 °F - 12.2 °F 24% 30.02 in 10.0 mi SSW 3.5 mph - N/A   Clear
3:15 AM 48.2 °F - 12.2 °F 24% 30.02 in 10.0 mi SSW 8.1 mph - N/A   Clear
3:35 AM 48.2 °F - 12.2 °F 24% 30.01 in 10.0 mi SSW 8.1 mph - N/A   Clear
3:55 AM 48.2 °F - 12.2 °F 24% 30.01 in 10.0 mi South 6.9 mph - N/A   Clear
4:15 AM 48.2 °F - 12.2 °F 24% 30.00 in 10.0 mi South 4.6 mph - N/A   Clear
4:35 AM 46.4 °F 43.5 °F 12.2 °F 25% 30.00 in 10.0 mi South 5.8 mph - N/A   Clear
4:55 AM 48.2 °F - 12.2 °F 24% 30.00 in 10.0 mi South 5.8 mph - N/A   Clear
5:15 AM 48.2 °F - 12.2 °F 24% 30.00 in 10.0 mi SSW 5.8 mph - N/A   Clear
5:35 AM 48.2 °F - 12.2 °F 24% 30.00 in 10.0 mi SSW 9.2 mph - N/A   Clear
5:55 AM 48.2 °F - 12.2 °F 24% 30.00 in 10.0 mi SSW 6.9 mph - N/A   Clear
6:15 AM 48.2 °F - 12.2 °F 24% 30.00 in 10.0 mi SSW 8.1 mph - N/A   Clear
6:35 AM 48.2 °F - 10.4 °F 22% 30.00 in 10.0 mi SW 9.2 mph - N/A   Clear
6:55 AM 48.2 °F - 10.4 °F 22% 30.00 in 10.0 mi SSW 9.2 mph - N/A   Clear
7:15 AM 50.0 °F - 10.4 °F 20% 30.00 in 10.0 mi SSW 11.5 mph - N/A   Clear
7:35 AM 50.0 °F - 12.2 °F 22% 30.01 in 10.0 mi SSW 9.2 mph - N/A   Clear
7:55 AM 48.2 °F - 12.2 °F 24% 30.01 in 10.0 mi SW 8.1 mph - N/A   Clear
8:15 AM 50.0 °F - 12.2 °F 22% 30.02 in 10.0 mi SW 4.6 mph - N/A   Clear
8:35 AM 50.0 °F - 12.2 °F 22% 30.02 in 10.0 mi SW 4.6 mph - N/A   Clear
8:55 AM 51.8 °F - 15.8 °F 24% 30.02 in 10.0 mi WSW 4.6 mph - N/A   Clear
9:15 AM 51.8 °F - 15.8 °F 24% 30.03 in 10.0 mi WSW 4.6 mph - N/A   Clear
9:35 AM 53.6 °F - 17.6 °F 24% 30.03 in 10.0 mi SW 9.2 mph - N/A   Clear
9:55 AM 55.4 °F - 17.6 °F 23% 30.03 in 10.0 mi West 12.7 mph 16.1 mph N/A   Clear
10:15 AM 55.4 °F - 17.6 °F 23% 30.03 in 10.0 mi West 13.8 mph 19.6 mph N/A   Clear
10:35 AM 55.4 °F - 17.6 °F 23% 30.04 in 10.0 mi West 8.1 mph 21.9 mph N/A   Clear
10:55 AM 57.2 °F - 19.4 °F 23% 30.04 in 10.0 mi West 13.8 mph 25.3 mph N/A   Clear
11:15 AM 59.0 °F - 21.2 °F 23% 30.04 in 10.0 mi West 12.7 mph 19.6 mph N/A   Clear
11:35 AM 60.8 °F - 21.2 °F 22% 30.04 in 10.0 mi West 9.2 mph 23.0 mph N/A   Clear
11:55 AM 60.8 °F - 23.0 °F 23% 30.04 in 10.0 mi WSW 15.0 mph 20.7 mph N/A   Clear
12:15 PM 60.8 °F - 23.0 °F 23% 30.04 in 10.0 mi West 15.0 mph 20.7 mph N/A   Clear
12:35 PM 62.6 °F - 24.8 °F 24% 30.03 in 10.0 mi West 21.9 mph 28.8 mph N/A   Clear
12:55 PM 60.8 °F - 24.8 °F 25% 30.04 in 10.0 mi West 11.5 mph 23.0 mph N/A   Clear
1:15 PM 62.6 °F - 24.8 °F 24% 30.03 in 10.0 mi West 11.5 mph 17.3 mph N/A   Clear
1:55 PM 60.8 °F - 24.8 °F 25% 30.03 in 10.0 mi West 10.4 mph 18.4 mph N/A   Scattered Clouds
2:15 PM 60.8 °F - 24.8 °F 25% 30.03 in 10.0 mi West 13.8 mph 19.6 mph N/A   Scattered Clouds
2:35 PM 60.8 °F - 24.8 °F 25% 30.02 in 10.0 mi WNW 9.2 mph 18.4 mph N/A   Scattered Clouds
2:55 PM 60.8 °F - 26.6 °F 27% 30.02 in 10.0 mi WSW 11.5 mph 16.1 mph N/A   Scattered Clouds
3:15 PM 62.6 °F - 26.6 °F 26% 30.01 in 10.0 mi WSW 13.8 mph 21.9 mph N/A   Scattered Clouds
3:35 PM 60.8 °F - 26.6 °F 27% 30.01 in 10.0 mi West 15.0 mph 24.2 mph N/A   Scattered Clouds
3:55 PM 60.8 °F - 26.6 °F 27% 30.00 in 10.0 mi West 10.4 mph - N/A   Scattered Clouds
4:15 PM 60.8 °F - 26.6 °F 27% 30.00 in 10.0 mi WNW 9.2 mph - N/A   Clear
4:35 PM 62.6 °F - 26.6 °F 26% 29.99 in 10.0 mi West 9.2 mph - N/A   Clear
4:55 PM 60.8 °F - 26.6 °F 27% 29.99 in 10.0 mi West 11.5 mph 17.3 mph N/A   Clear
5:15 PM 62.6 °F - 26.6 °F 26% 29.99 in 10.0 mi West 16.1 mph 20.7 mph N/A   Clear
5:35 PM 62.6 °F - 26.6 °F 26% 30.00 in 10.0 mi WNW 15.0 mph 21.9 mph N/A   Clear
5:55 PM 62.6 °F - 26.6 °F 26% 30.00 in 10.0 mi West 9.2 mph 19.6 mph N/A   Clear
6:15 PM 62.6 °F - 26.6 °F 26% 30.00 in 10.0 mi West 12.7 mph 20.7 mph N/A   Clear
6:35 PM 60.8 °F - 26.6 °F 27% 30.01 in 10.0 mi West 8.1 mph 19.6 mph N/A   Clear
6:55 PM 60.8 °F - 26.6 °F 27% 30.02 in 10.0 mi WSW 9.2 mph - N/A   Clear
7:15 PM 60.8 °F - 26.6 °F 27% 30.02 in 10.0 mi West 9.2 mph - N/A   Clear
7:35 PM 59.0 °F - 28.4 °F 31% 30.03 in 10.0 mi West 8.1 mph - N/A   Clear
7:55 PM 57.2 °F - 28.4 °F 33% 30.03 in 10.0 mi WSW 3.5 mph - N/A   Clear
8:15 PM 57.2 °F - 28.4 °F 33% 30.03 in 10.0 mi West 3.5 mph - N/A   Clear
8:35 PM 57.2 °F - 28.4 °F 33% 30.03 in 10.0 mi WSW 4.6 mph - N/A   Clear
8:55 PM 57.2 °F - 28.4 °F 33% 30.04 in 10.0 mi SW 3.5 mph - N/A   Clear
9:15 PM 57.2 °F - 30.2 °F 36% 30.04 in 10.0 mi SSW 3.5 mph - N/A   Clear
9:35 PM 55.4 °F - 30.2 °F 38% 30.05 in 10.0 mi WSW 3.5 mph - N/A   Clear
9:55 PM 55.4 °F - 30.2 °F 38% 30.05 in 10.0 mi West 3.5 mph - N/A   Clear
10:15 PM 55.4 °F - 30.2 °F 38% 30.05 in 10.0 mi WNW 4.6 mph - N/A   Clear
10:35 PM 55.4 °F - 30.2 °F 38% 30.05 in 10.0 mi WNW 5.8 mph - N/A   Clear
10:55 PM 53.6 °F - 30.2 °F 41% 30.05 in 10.0 mi NW 4.6 mph - N/A   Clear
11:15 PM 53.6 °F - 30.2 °F 41% 30.06 in 10.0 mi NW 3.5 mph - N/A   Clear
11:35 PM 53.6 °F - 30.2 °F 41% 30.05 in 10.0 mi Calm Calm - N/A   Clear
11:55 PM 51.8 °F - 32.0 °F 47% 30.05 in 10.0 mi Calm Calm - N/A   Clear